DW2465 Weather Reports


Display with metric or nautical units.
time (UTC)temp
F
wind
direction
speed
MPH
gust
MPH
rain 1hr
in
rain 24hr
in
rain mn
in
humidity
%
barometer
mb
20200607054504 61 135 8.0 15.0 0.00 0.03 0.00 83 1013.2
20200607053005 61 118 7.0 15.0 0.00 0.03 0.00 83 1013.0
20200607051502 61 188 3.0 14.0 0.00 0.03 0.00 84 1014.0
20200607050002 60 107 13.0 23.0 0.00 0.03 0.03 86 1011.2
20200607044959 60 49 9.0 19.0 0.00 0.03 0.03 87 1011.1
20200607043140 60 59 10.0 22.0 0.00 0.03 0.03 87 1011.9
20200607041634 60 80 9.0 19.0 0.00 0.03 0.03 88 1012.1
20200607040224 60 152 9.0 15.0 0.01 0.03 0.03 89 1012.8
20200607034708 59 75 8.0 17.0 0.01 0.03 0.03 89 1013.2
20200607033141 59 86 5.0 15.0 0.01 0.03 0.03 87 1014.1
20200607031748 60 83 8.0 16.0 0.01 0.03 0.03 84 1014.4
20200607030217 60 79 3.0 12.0 0.00 0.02 0.02 82 1014.9
20200607024644 60 84 4.0 12.0 0.00 0.02 0.02 81 1014.8
20200607023055 60 76 5.0 15.0 0.00 0.02 0.02 82 1014.5
20200607021614 61 99 8.0 18.0 0.00 0.02 0.02 84 1014.4
20200607020047 60 59 6.0 15.0 0.02 0.02 0.02 85 1014.8
20200607014545 60 57 3.0 9.0 0.02 0.02 0.02 85 1015.3
20200607013055 61 83 7.0 15.0 0.02 0.02 0.02 86 1015.8
20200607011600 64 298 3.0 8.0 0.02 0.02 0.02 81 1016.8
20200607010127 64 17 3.0 17.0 0.00 0.00 0.00 77 1015.1
20200607004608 64 77 1.0 8.0 0.00 0.00 0.00 79 1014.9
20200607003109 64 5 4.0 8.0 0.00 0.00 0.00 78 1014.7
20200607001543 64 84 8.0 15.0 0.00 0.00 0.00 80 1013.6
20200607000046 64 169 2.0 5.0 0.00 0.00 0.00 82 1014.5
20200606234558 63 97 2.0 10.0 0.00 0.00 0.00 80 1014.3
20200606233053 65 57 0.0 7.0 0.00 0.00 0.00 78 1014.2
20200606231552 69 84 0.0 4.0 0.00 0.00 0.00 66 1014.4
20200606230128 71 228 0.0 1.0 0.00 0.00 0.00 56 1015.6
20200606224545 72 115 0.0 12.0 0.00 0.00 0.00 50 1014.7
20200606223028 73 132 0.0 8.0 0.00 0.00 0.00 48 1014.7
20200606221523 73 126 0.0 12.0 0.00 0.00 0.00 48 1014.7
20200606220053 73 104 0.0 11.0 0.00 0.00 0.00 46 1014.5
20200606214634 74 101 0.0 10.0 0.00 0.00 0.00 46 1015.1
20200606213100 74 90 0.0 11.0 0.00 0.00 0.00 43 1015.7
20200606211544 74 82 1.0 12.0 0.00 0.00 0.00 44 1015.2
20200606210125 74 108 0.0 12.0 0.00 0.00 0.00 45 1015.0
20200606204627 74 114 2.0 13.0 0.00 0.00 0.00 44 1015.5
20200606203027 74 101 1.0 13.0 0.00 0.00 0.00 43 1015.9
20200606201603 74 101 2.0 14.0 0.00 0.00 0.00 43 1015.5
20200606200057 74 86 0.0 10.0 0.00 0.00 0.00 43 1015.7
20200606194544 75 62 1.0 9.0 0.00 0.00 0.00 42 1016.1
20200606193040 74 40 0.0 10.0 0.00 0.00 0.00 42 1016.1
20200606191531 74 77 3.0 15.0 0.00 0.00 0.00 43 1015.5
20200606190012 73 64 0.0 13.0 0.00 0.00 0.00 44 1014.8
20200606184520 73 121 0.0 16.0 0.00 0.00 0.00 43 1015.4
20200606183011 73 52 1.0 13.0 0.00 0.00 0.00 41 1016.1
20200606181509 72 129 2.0 15.0 0.00 0.00 0.00 40 1016.4
20200606180022 74 58 8.0 19.0 0.00 0.00 0.00 39 1016.1
20200606174523 74 76 2.0 13.0 0.00 0.00 0.00 39 1016.6
20200606173028 73 95 0.0 14.0 0.00 0.00 0.00 39 1016.9
20200606171505 73 86 2.0 12.0 0.00 0.00 0.00 39 1017.2
20200606164506 73 59 1.0 14.0 0.00 0.00 0.00 38 1017.4
20200606163005 72 360 0.0 6.0 0.00 0.00 0.00 43 1017.6
20200606161512 72 112 0.0 6.0 0.00 0.00 0.00 44 1017.9
20200606160008 71 11 0.0 10.0 0.00 0.00 0.00 44 1018.2
20200606154642 71 69 0.0 4.0 0.00 0.00 0.00 45 1018.3
20200606153101 70 17 0.0 9.0 0.00 0.00 0.00 49 1018.1
20200606151656 69 84 0.0 2.0 0.00 0.00 0.00 48 1018.5
20200606150109 68 86 1.0 6.0 0.00 0.00 0.00 51 1018.7
20200606144619 68 147 0.0 3.0 0.00 0.00 0.00 54 1018.9
20200606143231 67 136 0.0 4.0 0.00 0.00 0.00 55 1018.8
20200606141648 67 75 0.0 4.0 0.00 0.00 0.00 55 1018.7
20200606140229 66 107 0.0 2.0 0.00 0.00 0.00 57 1018.4
20200606134736 66 163 0.0 6.0 0.00 0.00 0.00 55 1018.5
20200606133239 66 108 0.0 2.0 0.00 0.00 0.00 60 1018.1
20200606131615 66 130 0.0 7.0 0.00 0.00 0.00 58 1018.4
20200606130124 65 88 0.0 6.0 0.00 0.00 0.00 61 1018.2
20200606124653 64 74 0.0 6.0 0.00 0.00 0.00 60 1018.1
20200606123127 63 79 0.0 1.0 0.00 0.00 0.00 65 1018.2
20200606121636 62 46 0.0 5.0 0.00 0.00 0.00 66 1018.4
20200606120220 61 45 0.0 0.0 0.00 0.00 0.00 69 1018.4
20200606114638 60 34 0.0 0.0 0.00 0.00 0.00 74 1018.5
20200606113257 59 42 0.0 0.0 0.00 0.00 0.00 76 1018.6
20200606111636 58 42 0.0 0.0 0.00 0.00 0.00 76 1018.5
20200606110209 58 42 0.0 0.0 0.00 0.00 0.00 77 1018.3
20200606104711 58 42 0.0 0.0 0.00 0.00 0.00 75 1018.0
20200606103157 58 42 0.0 2.0 0.00 0.00 0.00 74 1017.8
20200606101550 59 42 0.0 2.0 0.00 0.00 0.00 74 1017.6
20200606100121 59 46 0.0 0.0 0.00 0.00 0.00 75 1017.4
20200606094555 60 46 0.0 0.0 0.00 0.00 0.00 72 1017.4
20200606093208 60 46 0.0 0.0 0.00 0.00 0.00 68 1017.2
20200606091546 61 46 0.0 0.0 0.00 0.00 0.00 66 1017.1
20200606090035 61 46 0.0 0.0 0.00 0.00 0.00 62 1017.0
20200606084557 61 46 0.0 0.0 0.00 0.00 0.00 61 1016.9
20200606083045 62 38 0.0 0.0 0.00 0.00 0.00 60 1016.8
20200606081535 62 38 0.0 0.0 0.00 0.00 0.00 59 1016.5
20200606080034 62 44 0.0 2.0 0.00 0.00 0.00 58 1016.5
20200606074519 63 34 0.0 0.0 0.00 0.00 0.00 57 1016.3
20200606073048 63 52 0.0 0.0 0.00 0.00 0.00 56 1016.2
20200606071539 64 53 0.0 2.0 0.00 0.00 0.00 56 1016.1
20200606070010 64 29 0.0 0.0 0.00 0.00 0.00 56 1016.1
20200606064547 64 33 0.0 2.0 0.00 0.00 0.00 56 1016.0
20200606063007 64 28 0.0 6.0 0.00 0.00 0.00 56 1015.9
20200606061509 64 33 0.0 4.0 0.00 0.00 0.00 56 1015.9